Year,Month,Day,Hour,Minute,Value (Times are PST for windgust in km/hr)
2009,05,03,00,00,27.40
2009,05,03,00,01,20.90
2009,05,03,00,02,24.20
2009,05,03,00,03,22.50
2009,05,03,00,04,29.00
2009,05,03,00,05,20.90
2009,05,03,00,06,19.30
2009,05,03,00,07,24.20
2009,05,03,00,08,20.90
2009,05,03,00,09,19.30
2009,05,03,00,10,17.70
2009,05,03,00,11,24.20
2009,05,03,00,12,19.30
2009,05,03,00,13,20.90
2009,05,03,00,14,14.50
2009,05,03,00,15,17.70
2009,05,03,00,16,16.10
2009,05,03,00,17,11.30
2009,05,03,00,18,22.50
2009,05,03,00,19,14.50
2009,05,03,00,20,17.70
2009,05,03,00,21,19.30
2009,05,03,00,22,17.70
2009,05,03,00,23,16.10
2009,05,03,00,24,14.50
2009,05,03,00,25,11.30
2009,05,03,00,26,11.30
2009,05,03,00,27,9.60
2009,05,03,00,28,16.10
2009,05,03,00,29,16.10
2009,05,03,00,30,17.70
2009,05,03,00,31,14.50
2009,05,03,00,32,22.50
2009,05,03,00,33,16.10
2009,05,03,00,34,24.20
2009,05,03,00,35,27.40
2009,05,03,00,36,19.30
2009,05,03,00,37,14.50
2009,05,03,00,38,17.70
2009,05,03,00,39,16.10
2009,05,03,00,40,12.90
2009,05,03,00,41,8.10
2009,05,03,00,42,11.30
2009,05,03,00,43,24.20
2009,05,03,00,44,14.50
2009,05,03,00,45,11.30
2009,05,03,00,46,11.30
2009,05,03,00,47,16.10
2009,05,03,00,48,6.40
2009,05,03,00,49,16.10
2009,05,03,00,50,8.10
2009,05,03,00,51,19.30
2009,05,03,00,52,16.10
2009,05,03,00,53,11.30
2009,05,03,00,54,19.30
2009,05,03,00,55,8.10
2009,05,03,00,56,6.40
2009,05,03,00,57,9.60
2009,05,03,00,58,11.30
2009,05,03,00,59,8.10
2009,05,03,01,00,8.10
2009,05,03,01,01,6.40
2009,05,03,01,02,9.60
2009,05,03,01,03,14.50
2009,05,03,01,04,17.70
2009,05,03,01,05,8.10
2009,05,03,01,06,6.40
2009,05,03,01,07,4.80
2009,05,03,01,08,11.30
2009,05,03,01,09,11.30
2009,05,03,01,10,9.60
2009,05,03,01,11,14.50
2009,05,03,01,12,14.50
2009,05,03,01,13,6.40
2009,05,03,01,14,8.10
2009,05,03,01,15,11.30
2009,05,03,01,16,9.60
2009,05,03,01,17,8.10
2009,05,03,01,18,8.10
2009,05,03,01,19,17.70
2009,05,03,01,20,8.10
2009,05,03,01,21,12.90
2009,05,03,01,22,11.30
2009,05,03,01,23,8.10
2009,05,03,01,24,14.50
2009,05,03,01,25,9.60
2009,05,03,01,26,8.10
2009,05,03,01,27,11.30
2009,05,03,01,28,8.10
2009,05,03,01,29,11.30
2009,05,03,01,30,9.60
2009,05,03,01,31,11.30
2009,05,03,01,32,17.70
2009,05,03,01,33,6.40
2009,05,03,01,34,8.10
2009,05,03,01,35,6.40
2009,05,03,01,36,6.40
2009,05,03,01,37,6.40
2009,05,03,01,38,8.10
2009,05,03,01,39,14.50
2009,05,03,01,40,9.60
2009,05,03,01,41,14.50
2009,05,03,01,42,9.60
2009,05,03,01,43,14.50
2009,05,03,01,44,4.80
2009,05,03,01,45,8.10
2009,05,03,01,46,8.10
2009,05,03,01,47,9.60
2009,05,03,01,48,8.10
2009,05,03,01,49,11.30
2009,05,03,01,50,8.10
2009,05,03,01,51,9.60
2009,05,03,01,52,4.80
2009,05,03,01,53,17.70
2009,05,03,01,54,11.30
2009,05,03,01,55,11.30
2009,05,03,01,56,6.40
2009,05,03,01,57,9.60
2009,05,03,01,58,9.60
2009,05,03,01,59,14.50
2009,05,03,02,00,9.60
2009,05,03,02,01,11.30
2009,05,03,02,02,9.60
2009,05,03,02,03,14.50
2009,05,03,02,04,9.60
2009,05,03,02,05,8.10
2009,05,03,02,06,16.10
2009,05,03,02,07,14.50
2009,05,03,02,08,11.30
2009,05,03,02,09,9.60
2009,05,03,02,10,9.60
2009,05,03,02,11,8.10
2009,05,03,02,12,9.60
2009,05,03,02,13,8.10
2009,05,03,02,14,8.10
2009,05,03,02,15,11.30
2009,05,03,02,16,16.10
2009,05,03,02,17,8.10
2009,05,03,02,18,11.30
2009,05,03,02,19,8.10
2009,05,03,02,20,9.60
2009,05,03,02,21,4.80
2009,05,03,02,22,6.40
2009,05,03,02,23,12.90
2009,05,03,02,24,14.50
2009,05,03,02,25,14.50
2009,05,03,02,26,8.10
2009,05,03,02,27,12.90
2009,05,03,02,28,16.10
2009,05,03,02,29,11.30
2009,05,03,02,30,16.10
2009,05,03,02,31,14.50
2009,05,03,02,32,12.90
2009,05,03,02,33,11.30
2009,05,03,02,34,9.60
2009,05,03,02,35,8.10
2009,05,03,02,36,8.10
2009,05,03,02,37,8.10
2009,05,03,02,38,8.10
2009,05,03,02,39,6.40
2009,05,03,02,40,6.40
2009,05,03,02,41,8.10
2009,05,03,02,42,4.80
2009,05,03,02,43,4.80
2009,05,03,02,44,4.80
2009,05,03,02,45,4.80
2009,05,03,02,46,4.80
2009,05,03,02,47,6.40
2009,05,03,02,48,4.80
2009,05,03,02,49,0.00
2009,05,03,02,50,0.00
2009,05,03,02,51,0.00
2009,05,03,02,52,4.80
2009,05,03,02,53,4.80
2009,05,03,02,54,4.80
2009,05,03,02,55,4.80
2009,05,03,02,56,3.20
2009,05,03,02,57,6.40
2009,05,03,02,58,6.40
2009,05,03,02,59,4.80
2009,05,03,03,00,6.40
2009,05,03,03,01,6.40
2009,05,03,03,02,6.40
2009,05,03,03,03,6.40
2009,05,03,03,04,4.80
2009,05,03,03,05,4.80
2009,05,03,03,06,3.20
2009,05,03,03,07,4.80
2009,05,03,03,08,3.20
2009,05,03,03,09,4.80
2009,05,03,03,10,6.40
2009,05,03,03,11,9.60
2009,05,03,03,12,6.40
2009,05,03,03,13,4.80
2009,05,03,03,14,6.40
2009,05,03,03,15,9.60
2009,05,03,03,16,11.30
2009,05,03,03,17,11.30
2009,05,03,03,18,8.10
2009,05,03,03,19,11.30
2009,05,03,03,20,14.50
2009,05,03,03,21,12.90
2009,05,03,03,22,9.60
2009,05,03,03,23,11.30
2009,05,03,03,24,8.10
2009,05,03,03,25,8.10
2009,05,03,03,26,8.10
2009,05,03,03,27,8.10
2009,05,03,03,28,4.80
2009,05,03,03,29,8.10
2009,05,03,03,30,8.10
2009,05,03,03,31,8.10
2009,05,03,03,32,6.40
2009,05,03,03,33,4.80
2009,05,03,03,34,3.20
2009,05,03,03,35,3.20
2009,05,03,03,36,3.20
2009,05,03,03,37,6.40
2009,05,03,03,38,4.80
2009,05,03,03,39,6.40
2009,05,03,03,40,6.40
2009,05,03,03,41,8.10
2009,05,03,03,42,6.40
2009,05,03,03,43,4.80
2009,05,03,03,44,6.40
2009,05,03,03,45,6.40
2009,05,03,03,46,4.80
2009,05,03,03,47,6.40
2009,05,03,03,48,4.80
2009,05,03,03,49,4.80
2009,05,03,03,50,6.40
2009,05,03,03,51,6.40
2009,05,03,03,52,6.40
2009,05,03,03,53,6.40
2009,05,03,03,54,6.40
2009,05,03,03,55,6.40
2009,05,03,03,56,6.40
2009,05,03,03,57,6.40
2009,05,03,03,58,6.40
2009,05,03,03,59,4.80
2009,05,03,04,00,4.80
2009,05,03,04,01,6.40
2009,05,03,04,02,6.40
2009,05,03,04,03,4.80
2009,05,03,04,04,6.40
2009,05,03,04,05,4.80
2009,05,03,04,06,6.40
2009,05,03,04,07,4.80
2009,05,03,04,08,4.80
2009,05,03,04,09,4.80
2009,05,03,04,10,4.80
2009,05,03,04,11,3.20
2009,05,03,04,12,3.20
2009,05,03,04,13,3.20
2009,05,03,04,14,1.60
2009,05,03,04,15,3.20
2009,05,03,04,16,1.60
2009,05,03,04,17,1.60
2009,05,03,04,18,3.20
2009,05,03,04,19,3.20
2009,05,03,04,20,4.80
2009,05,03,04,21,8.10
2009,05,03,04,22,6.40
2009,05,03,04,23,4.80
2009,05,03,04,24,6.40
2009,05,03,04,25,6.40
2009,05,03,04,26,6.40
2009,05,03,04,27,4.80
2009,05,03,04,28,6.40
2009,05,03,04,29,6.40
2009,05,03,04,30,6.40
2009,05,03,04,31,8.10
2009,05,03,04,32,6.40
2009,05,03,04,33,4.80
2009,05,03,04,34,4.80
2009,05,03,04,35,4.80
2009,05,03,04,36,6.40
2009,05,03,04,37,6.40
2009,05,03,04,38,4.80
2009,05,03,04,39,3.20
2009,05,03,04,40,3.20
2009,05,03,04,41,3.20
2009,05,03,04,42,3.20
2009,05,03,04,43,0.00
2009,05,03,04,44,3.20
2009,05,03,04,45,1.60
2009,05,03,04,46,0.00
2009,05,03,04,47,0.00
2009,05,03,04,48,0.00
2009,05,03,04,49,0.00
2009,05,03,04,50,1.60
2009,05,03,04,51,3.20
2009,05,03,04,52,6.40
2009,05,03,04,53,1.60
2009,05,03,04,54,1.60
2009,05,03,04,55,3.20
2009,05,03,04,56,1.60
2009,05,03,04,57,0.00
2009,05,03,04,58,0.00
2009,05,03,04,59,0.00
2009,05,03,05,00,0.00
2009,05,03,05,01,0.00
2009,05,03,05,02,0.00
2009,05,03,05,03,0.00
2009,05,03,05,04,0.00
2009,05,03,05,05,0.00
2009,05,03,05,06,0.00
2009,05,03,05,07,0.00
2009,05,03,05,08,0.00
2009,05,03,05,09,0.00
2009,05,03,05,10,0.00
2009,05,03,05,11,0.00
2009,05,03,05,12,0.00
2009,05,03,05,13,0.00
2009,05,03,05,14,0.00
2009,05,03,05,15,1.60
2009,05,03,05,16,3.20
2009,05,03,05,17,3.20
2009,05,03,05,18,3.20
2009,05,03,05,19,4.80
2009,05,03,05,20,4.80
2009,05,03,05,21,3.20
2009,05,03,05,22,3.20
2009,05,03,05,23,3.20
2009,05,03,05,24,0.00
2009,05,03,05,25,0.00
2009,05,03,05,26,0.00
2009,05,03,05,27,0.00
2009,05,03,05,28,0.00
2009,05,03,05,29,0.00
2009,05,03,05,30,0.00
2009,05,03,05,31,0.00
2009,05,03,05,32,0.00
2009,05,03,05,33,0.00
2009,05,03,05,34,0.00
2009,05,03,05,35,0.00
2009,05,03,05,36,0.00
2009,05,03,05,37,0.00
2009,05,03,05,38,0.00
2009,05,03,05,39,0.00
2009,05,03,05,40,0.00
2009,05,03,05,41,0.00
2009,05,03,05,42,0.00
2009,05,03,05,43,0.00
2009,05,03,05,44,0.00
2009,05,03,05,45,0.00
2009,05,03,05,46,0.00
2009,05,03,05,47,0.00
2009,05,03,05,48,0.00
2009,05,03,05,49,0.00
2009,05,03,05,50,0.00
2009,05,03,05,51,0.00
2009,05,03,05,52,0.00
2009,05,03,05,53,0.00
2009,05,03,05,54,0.00
2009,05,03,05,55,0.00
2009,05,03,05,56,0.00
2009,05,03,05,57,0.00
2009,05,03,05,58,0.00
2009,05,03,05,59,0.00
2009,05,03,06,00,0.00
2009,05,03,06,01,0.00
2009,05,03,06,02,0.00
2009,05,03,06,03,0.00
2009,05,03,06,04,0.00
2009,05,03,06,05,0.00
2009,05,03,06,06,0.00
2009,05,03,06,07,0.00
2009,05,03,06,08,0.00
2009,05,03,06,09,0.00
2009,05,03,06,10,0.00
2009,05,03,06,11,0.00
2009,05,03,06,12,0.00
2009,05,03,06,13,0.00
2009,05,03,06,14,3.20
2009,05,03,06,15,3.20
2009,05,03,06,16,4.80
2009,05,03,06,17,3.20
2009,05,03,06,18,3.20
2009,05,03,06,19,1.60
2009,05,03,06,20,3.20
2009,05,03,06,21,3.20
2009,05,03,06,22,3.20
2009,05,03,06,23,1.60
2009,05,03,06,24,1.60
2009,05,03,06,25,1.60
2009,05,03,06,26,1.60
2009,05,03,06,27,1.60
2009,05,03,06,28,0.00
2009,05,03,06,29,0.00
2009,05,03,06,30,0.00
2009,05,03,06,31,0.00
2009,05,03,06,32,0.00
2009,05,03,06,33,0.00
2009,05,03,06,34,0.00
2009,05,03,06,35,0.00
2009,05,03,06,36,0.00
2009,05,03,06,37,0.00
2009,05,03,06,38,0.00
2009,05,03,06,39,0.00
2009,05,03,06,40,0.00
2009,05,03,06,41,0.00
2009,05,03,06,42,0.00
2009,05,03,06,43,0.00
2009,05,03,06,44,0.00
2009,05,03,06,45,0.00
2009,05,03,06,46,0.00
2009,05,03,06,47,0.00
2009,05,03,06,48,0.00
2009,05,03,06,49,0.00
2009,05,03,06,50,0.00
2009,05,03,06,51,0.00
2009,05,03,06,52,0.00
2009,05,03,06,53,0.00
2009,05,03,06,54,0.00
2009,05,03,06,55,0.00
2009,05,03,06,56,0.00
2009,05,03,06,57,0.00
2009,05,03,06,58,0.00
2009,05,03,06,59,0.00
2009,05,03,07,00,0.00
2009,05,03,07,01,0.00
2009,05,03,07,02,0.00
2009,05,03,07,03,0.00
2009,05,03,07,04,0.00
2009,05,03,07,05,0.00
2009,05,03,07,06,0.00
2009,05,03,07,07,0.00
2009,05,03,07,08,0.00
2009,05,03,07,09,0.00
2009,05,03,07,10,0.00
2009,05,03,07,11,0.00
2009,05,03,07,12,0.00
2009,05,03,07,13,0.00
2009,05,03,07,14,0.00
2009,05,03,07,15,0.00
2009,05,03,07,16,0.00
2009,05,03,07,17,0.00
2009,05,03,07,18,0.00
2009,05,03,07,19,0.00
2009,05,03,07,20,0.00
2009,05,03,07,21,0.00
2009,05,03,07,22,0.00
2009,05,03,07,23,0.00
2009,05,03,07,24,0.00
2009,05,03,07,25,0.00
2009,05,03,07,26,0.00
2009,05,03,07,27,0.00
2009,05,03,07,28,0.00
2009,05,03,07,29,0.00
2009,05,03,07,30,0.00
2009,05,03,07,31,0.00
2009,05,03,07,32,0.00
2009,05,03,07,33,0.00
2009,05,03,07,34,0.00
2009,05,03,07,35,0.00
2009,05,03,07,36,0.00
2009,05,03,07,37,0.00
2009,05,03,07,38,0.00
2009,05,03,07,39,0.00
2009,05,03,07,40,0.00
2009,05,03,07,41,0.00
2009,05,03,07,42,0.00
2009,05,03,07,43,0.00
2009,05,03,07,44,0.00
2009,05,03,07,45,0.00
2009,05,03,07,46,0.00
2009,05,03,07,47,0.00
2009,05,03,07,48,0.00
2009,05,03,07,49,0.00
2009,05,03,07,50,0.00
2009,05,03,07,51,0.00
2009,05,03,07,52,0.00
2009,05,03,07,53,0.00
2009,05,03,07,54,0.00
2009,05,03,07,55,0.00
2009,05,03,07,56,0.00
2009,05,03,07,57,0.00
2009,05,03,07,58,0.00
2009,05,03,07,59,0.00
2009,05,03,08,00,0.00
2009,05,03,08,01,0.00
2009,05,03,08,02,1.60
2009,05,03,08,03,3.20
2009,05,03,08,04,3.20
2009,05,03,08,05,3.20
2009,05,03,08,06,4.80
2009,05,03,08,07,4.80
2009,05,03,08,08,4.80
2009,05,03,08,09,4.80
2009,05,03,08,10,4.80
2009,05,03,08,11,3.20
2009,05,03,08,12,4.80
2009,05,03,08,13,8.10
2009,05,03,08,14,6.40
2009,05,03,08,15,4.80
2009,05,03,08,16,3.20
2009,05,03,08,17,1.60
2009,05,03,08,18,3.20
2009,05,03,08,19,3.20
2009,05,03,08,20,6.40
2009,05,03,08,21,4.80
2009,05,03,08,22,4.80
2009,05,03,08,23,3.20
2009,05,03,08,24,3.20
2009,05,03,08,25,4.80
2009,05,03,08,26,6.40
2009,05,03,08,27,6.40
2009,05,03,08,28,3.20
2009,05,03,08,29,0.00
2009,05,03,08,30,0.00
2009,05,03,08,31,3.20
2009,05,03,08,32,3.20
2009,05,03,08,33,4.80
2009,05,03,08,34,3.20
2009,05,03,08,35,4.80
2009,05,03,08,36,4.80
2009,05,03,08,37,1.60
2009,05,03,08,38,3.20
2009,05,03,08,39,3.20
2009,05,03,08,40,3.20
2009,05,03,08,41,4.80
2009,05,03,08,42,4.80
2009,05,03,08,43,4.80
2009,05,03,08,44,6.40
2009,05,03,08,45,6.40
2009,05,03,08,46,4.80
2009,05,03,08,47,3.20
2009,05,03,08,48,4.80
2009,05,03,08,49,6.40
2009,05,03,08,50,4.80
2009,05,03,08,51,3.20
2009,05,03,08,52,1.60
2009,05,03,08,53,3.20
2009,05,03,08,54,4.80
2009,05,03,08,55,6.40
2009,05,03,08,56,9.60
2009,05,03,08,57,11.30
2009,05,03,08,58,4.80
2009,05,03,08,59,4.80
2009,05,03,09,00,6.40
2009,05,03,09,01,4.80
2009,05,03,09,02,3.20
2009,05,03,09,03,6.40
2009,05,03,09,04,9.60
2009,05,03,09,05,8.10
2009,05,03,09,06,6.40
2009,05,03,09,07,6.40
2009,05,03,09,08,4.80
2009,05,03,09,09,4.80
2009,05,03,09,10,4.80
2009,05,03,09,11,4.80
2009,05,03,09,12,6.40
2009,05,03,09,13,4.80
2009,05,03,09,14,3.20
2009,05,03,09,15,1.60
2009,05,03,09,16,1.60
2009,05,03,09,17,1.60
2009,05,03,09,18,0.00
2009,05,03,09,19,0.00
2009,05,03,09,20,0.00
2009,05,03,09,21,0.00
2009,05,03,09,22,0.00
2009,05,03,09,23,0.00
2009,05,03,09,24,0.00
2009,05,03,09,25,0.00
2009,05,03,09,26,4.80
2009,05,03,09,27,8.10
2009,05,03,09,28,6.40
2009,05,03,09,29,8.10
2009,05,03,09,30,8.10
2009,05,03,09,31,9.60
2009,05,03,09,32,6.40
2009,05,03,09,33,8.10
2009,05,03,09,34,8.10
2009,05,03,09,35,8.10
2009,05,03,09,36,8.10
2009,05,03,09,37,6.40
2009,05,03,09,38,6.40
2009,05,03,09,39,3.20
2009,05,03,09,40,4.80
2009,05,03,09,41,6.40
2009,05,03,09,42,6.40
2009,05,03,09,43,6.40
2009,05,03,09,44,6.40
2009,05,03,09,45,8.10
2009,05,03,09,46,11.30
2009,05,03,09,47,11.30
2009,05,03,09,48,6.40
2009,05,03,09,49,9.60
2009,05,03,09,50,11.30
2009,05,03,09,51,8.10
2009,05,03,09,52,6.40
2009,05,03,09,53,9.60
2009,05,03,09,54,9.60
2009,05,03,09,55,12.90
2009,05,03,09,56,16.10
2009,05,03,09,57,11.30
2009,05,03,09,58,6.40
2009,05,03,09,59,6.40
2009,05,03,10,00,11.30
2009,05,03,10,01,11.30
2009,05,03,10,02,11.30
2009,05,03,10,03,11.30
2009,05,03,10,04,14.50
2009,05,03,10,05,16.10
2009,05,03,10,06,16.10
2009,05,03,10,07,11.30
2009,05,03,10,08,9.60
2009,05,03,10,09,9.60
2009,05,03,10,10,4.80
2009,05,03,10,11,4.80
2009,05,03,10,12,4.80
2009,05,03,10,13,4.80
2009,05,03,10,14,6.40
2009,05,03,10,15,4.80
2009,05,03,10,16,6.40
2009,05,03,10,17,8.10
2009,05,03,10,18,8.10
2009,05,03,10,19,8.10
2009,05,03,10,20,11.30
2009,05,03,10,21,11.30
2009,05,03,10,22,8.10
2009,05,03,10,23,8.10
2009,05,03,10,24,4.80
2009,05,03,10,25,3.20
2009,05,03,10,26,6.40
2009,05,03,10,27,4.80
2009,05,03,10,28,6.40
2009,05,03,10,29,9.60
2009,05,03,10,30,11.30
2009,05,03,10,31,9.60
2009,05,03,10,32,4.80
2009,05,03,10,33,8.10
2009,05,03,10,34,6.40
2009,05,03,10,35,4.80
2009,05,03,10,36,6.40
2009,05,03,10,37,9.60
2009,05,03,10,38,8.10
2009,05,03,10,39,3.20
2009,05,03,10,40,11.30
2009,05,03,10,41,19.30
2009,05,03,10,42,11.30
2009,05,03,10,43,9.60
2009,05,03,10,44,6.40
2009,05,03,10,45,3.20
2009,05,03,10,46,3.20
2009,05,03,10,47,8.10
2009,05,03,10,48,6.40
2009,05,03,10,49,6.40
2009,05,03,10,50,11.30
2009,05,03,10,51,11.30
2009,05,03,10,52,11.30
2009,05,03,10,53,19.30
2009,05,03,10,54,9.60
2009,05,03,10,55,8.10
2009,05,03,10,56,8.10
2009,05,03,10,57,6.40
2009,05,03,10,58,3.20
2009,05,03,10,59,9.60
2009,05,03,11,00,8.10
2009,05,03,11,01,8.10
2009,05,03,11,02,9.60
2009,05,03,11,03,9.60
2009,05,03,11,04,6.40
2009,05,03,11,05,8.10
2009,05,03,11,06,6.40
2009,05,03,11,07,1.60
2009,05,03,11,08,6.40
2009,05,03,11,09,6.40
2009,05,03,11,10,16.10
2009,05,03,11,11,19.30
2009,05,03,11,12,11.30
2009,05,03,11,13,8.10
2009,05,03,11,14,6.40
2009,05,03,11,15,1.60
2009,05,03,11,16,4.80
2009,05,03,11,17,9.60
2009,05,03,11,18,8.10
2009,05,03,11,19,9.60
2009,05,03,11,20,3.20
2009,05,03,11,21,16.10
2009,05,03,11,22,9.60
2009,05,03,11,23,8.10
2009,05,03,11,24,8.10
2009,05,03,11,25,16.10
2009,05,03,11,26,14.50
2009,05,03,11,27,12.90
2009,05,03,11,28,17.70
2009,05,03,11,29,11.30
2009,05,03,11,30,9.60
2009,05,03,11,31,3.20
2009,05,03,11,32,9.60
2009,05,03,11,33,4.80
2009,05,03,11,34,3.20
2009,05,03,11,35,8.10
2009,05,03,11,36,11.30
2009,05,03,11,37,9.60
2009,05,03,11,38,4.80
2009,05,03,11,39,4.80
2009,05,03,11,40,8.10
2009,05,03,11,41,8.10
2009,05,03,11,42,17.70
2009,05,03,11,43,17.70
2009,05,03,11,44,20.90
2009,05,03,11,45,20.90
2009,05,03,11,46,8.10
2009,05,03,11,47,9.60
2009,05,03,11,48,12.90
2009,05,03,11,49,11.30
2009,05,03,11,50,11.30
2009,05,03,11,51,8.10
2009,05,03,11,52,6.40
2009,05,03,11,53,8.10
2009,05,03,11,54,4.80
2009,05,03,11,55,6.40
2009,05,03,11,56,6.40
2009,05,03,11,57,14.50
2009,05,03,11,58,17.70
2009,05,03,11,59,4.80
2009,05,03,12,00,9.60
2009,05,03,12,01,11.30
2009,05,03,12,02,12.90
2009,05,03,12,03,17.70
2009,05,03,12,04,16.10
2009,05,03,12,05,16.10
2009,05,03,12,06,11.30
2009,05,03,12,07,19.30
2009,05,03,12,08,11.30
2009,05,03,12,09,14.50
2009,05,03,12,10,6.40
2009,05,03,12,11,11.30
2009,05,03,12,12,6.40
2009,05,03,12,13,8.10
2009,05,03,12,14,6.40
2009,05,03,12,15,1.60
2009,05,03,12,16,4.80
2009,05,03,12,17,14.50
2009,05,03,12,18,9.60
2009,05,03,12,19,1.60
2009,05,03,12,20,4.80
2009,05,03,12,21,8.10
2009,05,03,12,22,14.50
2009,05,03,12,23,16.10
2009,05,03,12,24,11.30
2009,05,03,12,25,16.10
2009,05,03,12,26,9.60
2009,05,03,12,27,11.30
2009,05,03,12,28,4.80
2009,05,03,12,29,14.50
2009,05,03,12,30,11.30
2009,05,03,12,31,16.10
2009,05,03,12,32,19.30
2009,05,03,12,33,16.10
2009,05,03,12,34,6.40
2009,05,03,12,35,16.10
2009,05,03,12,36,19.30
2009,05,03,12,37,9.60
2009,05,03,12,38,11.30
2009,05,03,12,39,8.10
2009,05,03,12,40,17.70
2009,05,03,12,41,8.10
2009,05,03,12,42,8.10
2009,05,03,12,43,9.60
2009,05,03,12,44,8.10
2009,05,03,12,45,6.40
2009,05,03,12,46,8.10
2009,05,03,12,47,14.50
2009,05,03,12,48,19.30
2009,05,03,12,49,22.50
2009,05,03,12,50,8.10
2009,05,03,12,51,8.10
2009,05,03,12,52,8.10
2009,05,03,12,53,8.10
2009,05,03,12,54,16.10
2009,05,03,12,55,16.10
2009,05,03,12,56,11.30
2009,05,03,12,57,11.30
2009,05,03,12,58,17.70
2009,05,03,12,59,6.40
2009,05,03,13,00,9.60
2009,05,03,13,01,16.10
2009,05,03,13,02,19.30
2009,05,03,13,03,11.30
2009,05,03,13,04,11.30
2009,05,03,13,05,4.80
2009,05,03,13,06,4.80
2009,05,03,13,07,3.20
2009,05,03,13,08,3.20
2009,05,03,13,09,6.40
2009,05,03,13,10,9.60
2009,05,03,13,11,9.60
2009,05,03,13,12,8.10
2009,05,03,13,13,8.10
2009,05,03,13,14,14.50
2009,05,03,13,15,12.90
2009,05,03,13,16,11.30
2009,05,03,13,17,14.50
2009,05,03,13,18,14.50
2009,05,03,13,19,12.90
2009,05,03,13,20,14.50
2009,05,03,13,21,8.10
2009,05,03,13,22,9.60
2009,05,03,13,23,16.10
2009,05,03,13,24,14.50
2009,05,03,13,25,14.50
2009,05,03,13,26,14.50
2009,05,03,13,27,11.30
2009,05,03,13,28,16.10
2009,05,03,13,29,8.10
2009,05,03,13,30,16.10
2009,05,03,13,31,17.70
2009,05,03,13,32,16.10
2009,05,03,13,33,9.60
2009,05,03,13,34,9.60
2009,05,03,13,35,9.60
2009,05,03,13,36,16.10
2009,05,03,13,37,16.10
2009,05,03,13,38,16.10
2009,05,03,13,39,20.90
2009,05,03,13,40,19.30
2009,05,03,13,41,16.10
2009,05,03,13,42,22.50
2009,05,03,13,43,17.70
2009,05,03,13,44,16.10
2009,05,03,13,45,19.30
2009,05,03,13,46,14.50
2009,05,03,13,47,17.70
2009,05,03,13,48,24.20
2009,05,03,13,49,16.10
2009,05,03,13,50,19.30
2009,05,03,13,51,19.30
2009,05,03,13,52,24.20
2009,05,03,13,53,19.30
2009,05,03,13,54,17.70
2009,05,03,13,55,16.10
2009,05,03,13,56,16.10
2009,05,03,13,57,16.10
2009,05,03,13,58,16.10
2009,05,03,13,59,17.70
2009,05,03,14,00,16.10
2009,05,03,14,01,17.70
2009,05,03,14,02,11.30
2009,05,03,14,03,16.10
2009,05,03,14,04,20.90
2009,05,03,14,05,16.10
2009,05,03,14,06,22.50
2009,05,03,14,07,17.70
2009,05,03,14,08,11.30
2009,05,03,14,09,17.70
2009,05,03,14,10,16.10
2009,05,03,14,11,17.70
2009,05,03,14,12,12.90
2009,05,03,14,13,9.60
2009,05,03,14,14,16.10
2009,05,03,14,15,8.10
2009,05,03,14,16,14.50
2009,05,03,14,17,11.30
2009,05,03,14,18,17.70
2009,05,03,14,19,17.70
2009,05,03,14,20,16.10
2009,05,03,14,21,11.30
2009,05,03,14,22,9.60
2009,05,03,14,23,9.60
2009,05,03,14,24,17.70
2009,05,03,14,25,14.50
2009,05,03,14,26,17.70
2009,05,03,14,27,9.60
2009,05,03,14,28,14.50
2009,05,03,14,29,16.10
2009,05,03,14,30,20.90
2009,05,03,14,31,17.70
2009,05,03,14,32,14.50
2009,05,03,14,33,8.10
2009,05,03,14,34,17.70
2009,05,03,14,35,17.70
2009,05,03,14,36,17.70
2009,05,03,14,37,14.50
2009,05,03,14,38,16.10
2009,05,03,14,39,17.70
2009,05,03,14,40,14.50
2009,05,03,14,41,16.10
2009,05,03,14,42,17.70
2009,05,03,14,43,17.70
2009,05,03,14,44,16.10
2009,05,03,14,45,19.30
2009,05,03,14,46,16.10
2009,05,03,14,47,14.50
2009,05,03,14,48,11.30
2009,05,03,14,49,17.70
2009,05,03,14,50,17.70
2009,05,03,14,51,14.50
2009,05,03,14,52,17.70
2009,05,03,14,53,16.10
2009,05,03,14,54,14.50
2009,05,03,14,55,22.50
2009,05,03,14,56,19.30
2009,05,03,14,57,9.60
2009,05,03,14,58,17.70
2009,05,03,14,59,16.10
2009,05,03,15,00,17.70
2009,05,03,15,01,22.50
2009,05,03,15,02,24.20
2009,05,03,15,03,25.70
2009,05,03,15,04,20.90
2009,05,03,15,05,16.10
2009,05,03,15,06,19.30
2009,05,03,15,07,19.30
2009,05,03,15,08,16.10
2009,05,03,15,09,19.30
2009,05,03,15,10,16.10
2009,05,03,15,11,17.70
2009,05,03,15,12,20.90
2009,05,03,15,13,19.30
2009,05,03,15,14,20.90
2009,05,03,15,15,22.50
2009,05,03,15,16,17.70
2009,05,03,15,17,17.70
2009,05,03,15,18,19.30
2009,05,03,15,19,20.90
2009,05,03,15,20,17.70
2009,05,03,15,21,19.30
2009,05,03,15,22,22.50
2009,05,03,15,23,17.70
2009,05,03,15,24,19.30
2009,05,03,15,25,20.90
2009,05,03,15,26,11.30
2009,05,03,15,27,17.70
2009,05,03,15,28,17.70
2009,05,03,15,29,19.30
2009,05,03,15,30,17.70
2009,05,03,15,31,17.70
2009,05,03,15,32,9.60
2009,05,03,15,33,16.10
2009,05,03,15,34,27.40
2009,05,03,15,35,19.30
2009,05,03,15,36,20.90
2009,05,03,15,37,19.30
2009,05,03,15,38,19.30
2009,05,03,15,39,22.50
2009,05,03,15,40,24.20
2009,05,03,15,41,19.30
2009,05,03,15,42,24.20
2009,05,03,15,43,20.90
2009,05,03,15,44,20.90
2009,05,03,15,45,25.70
2009,05,03,15,46,19.30
2009,05,03,15,47,12.90
2009,05,03,15,48,19.30
2009,05,03,15,49,14.50
2009,05,03,15,50,11.30
2009,05,03,15,51,20.90
2009,05,03,15,52,22.50
2009,05,03,15,53,16.10
2009,05,03,15,54,16.10
2009,05,03,15,55,19.30
2009,05,03,15,56,20.90
2009,05,03,15,57,20.90
2009,05,03,15,58,22.50
2009,05,03,15,59,20.90
2009,05,03,16,00,11.30
2009,05,03,16,01,14.50
2009,05,03,16,02,24.20
2009,05,03,16,03,17.70
2009,05,03,16,04,20.90
2009,05,03,16,05,17.70
2009,05,03,16,06,24.20
2009,05,03,16,07,25.70
2009,05,03,16,08,22.50
2009,05,03,16,09,22.50
2009,05,03,16,10,19.30
2009,05,03,16,11,27.40
2009,05,03,16,12,20.90
2009,05,03,16,13,24.20
2009,05,03,16,14,16.10
2009,05,03,16,15,20.90
2009,05,03,16,16,19.30
2009,05,03,16,17,24.20
2009,05,03,16,18,20.90
2009,05,03,16,19,25.70
2009,05,03,16,20,19.30
2009,05,03,16,21,25.70
2009,05,03,16,22,27.40
2009,05,03,16,23,22.50
2009,05,03,16,24,24.20
2009,05,03,16,25,22.50
2009,05,03,16,26,22.50
2009,05,03,16,27,19.30
2009,05,03,16,28,19.30
2009,05,03,16,29,20.90
2009,05,03,16,30,29.00
2009,05,03,16,31,19.30
2009,05,03,16,32,19.30
2009,05,03,16,33,11.30
2009,05,03,16,34,16.10
2009,05,03,16,35,25.70
2009,05,03,16,36,20.90
2009,05,03,16,37,16.10
2009,05,03,16,38,17.70
2009,05,03,16,39,16.10
2009,05,03,16,40,16.10
2009,05,03,16,41,14.50
2009,05,03,16,42,11.30
2009,05,03,16,43,11.30
2009,05,03,16,44,16.10
2009,05,03,16,45,14.50
2009,05,03,16,46,8.10
2009,05,03,16,47,11.30
2009,05,03,16,48,20.90
2009,05,03,16,49,19.30
2009,05,03,16,50,24.20
2009,05,03,16,51,20.90
2009,05,03,16,52,11.30
2009,05,03,16,53,12.90
2009,05,03,16,54,14.50
2009,05,03,16,55,22.50
2009,05,03,16,56,20.90
2009,05,03,16,57,20.90
2009,05,03,16,58,25.70
2009,05,03,16,59,30.60
2009,05,03,17,00,19.30
2009,05,03,17,01,27.40
2009,05,03,17,02,19.30
2009,05,03,17,03,19.30
2009,05,03,17,04,16.10
2009,05,03,17,05,14.50
2009,05,03,17,06,17.70
2009,05,03,17,07,24.20
2009,05,03,17,08,22.50
2009,05,03,17,09,27.40
2009,05,03,17,10,27.40
2009,05,03,17,11,16.10
2009,05,03,17,12,9.60
2009,05,03,17,13,12.90
2009,05,03,17,14,14.50
2009,05,03,17,15,16.10
2009,05,03,17,16,17.70
2009,05,03,17,17,9.60
2009,05,03,17,18,9.60
2009,05,03,17,19,11.30
2009,05,03,17,20,11.30
2009,05,03,17,21,16.10
2009,05,03,17,22,19.30
2009,05,03,17,23,22.50
2009,05,03,17,24,19.30
2009,05,03,17,25,11.30
2009,05,03,17,26,8.10
2009,05,03,17,27,16.10
2009,05,03,17,28,8.10
2009,05,03,17,29,11.30
2009,05,03,17,30,11.30
2009,05,03,17,31,17.70
2009,05,03,17,32,14.50
2009,05,03,17,33,16.10
2009,05,03,17,34,20.90
2009,05,03,17,35,20.90
2009,05,03,17,36,20.90
2009,05,03,17,37,14.50
2009,05,03,17,38,17.70
2009,05,03,17,39,14.50
2009,05,03,17,40,20.90
2009,05,03,17,41,17.70
2009,05,03,17,42,8.10
2009,05,03,17,43,14.50
2009,05,03,17,44,12.90
2009,05,03,17,45,24.20
2009,05,03,17,46,19.30
2009,05,03,17,47,14.50